Date String (YYYY-MM-DD hh:mm:ss) UTC,Instrument flags,Ambient pressure (hPa),Sample flow (lpm),Bypass flow (lpm),Sample temperature (°C),Ambient temperature (°C),ASC tube jacket temperature (°C),LED temperature (°C),Box temperature (°C),Sample RH (%),Span deviation,Mass concentration (μg/m³),Mass concentration (μg/m³),Mass concentration (μg/m³)
DateTimeUTC,F1_M11,P_M11,Q1_M11,Q2_M11,T1_M11,T2_M11,T3_M11,T4_M11,T5_M11,U1_M11,ZSPAN_M11,X0_M11,X2_M11,X1_M11
2021-09-28 13:00:00,,0822.4,5.00,0.00,30.3,29.3,00.0,39.4,32.0,15.9,0000.7,0006.67,0003.54,0003.03
2021-09-28 13:01:00,,0822.4,5.01,0.00,30.3,28.8,00.0,39.4,31.9,16.0,0000.2,0006.38,0003.51,0003.01
2021-09-28 13:02:00,,0822.4,5.00,0.00,30.2,27.0,00.0,39.3,31.5,16.1,-000.4,0006.56,0003.51,0002.99
2021-09-28 13:03:00,,0822.4,4.99,0.00,30.0,26.5,00.0,39.3,31.3,16.3,-000.1,0006.69,0003.52,0002.99
2021-09-28 13:04:00,,0822.3,5.01,0.00,29.9,26.7,00.0,39.3,31.3,16.4,0000.6,0006.50,0003.51,0002.97
2021-09-28 13:05:00,,0822.4,5.01,0.00,29.9,27.1,00.0,39.2,31.3,16.4,0001.0,0006.64,0003.50,0002.95
2021-09-28 13:06:00,,0822.3,4.99,0.00,29.8,27.5,00.0,39.2,31.3,16.6,0001.0,0006.35,0003.46,0002.92
2021-09-28 13:07:00,,0822.3,5.00,0.00,29.8,27.8,00.0,39.1,31.4,16.7,0001.2,0006.65,0003.38,0002.87
2021-09-28 13:08:00,,0822.3,5.01,0.00,29.8,28.0,00.0,39.1,31.4,16.6,0000.9,0007.38,0003.31,0002.82
2021-09-28 13:09:00,,0822.3,4.98,0.00,29.8,28.2,00.0,39.1,31.5,16.5,0000.6,0007.34,0003.28,0002.82
2021-09-28 13:10:00,,0822.3,5.01,0.00,29.9,28.4,00.0,39.1,31.5,16.5,0001.0,0007.10,0003.27,0002.81
2021-09-28 13:11:00,,0822.3,5.01,0.00,29.9,28.5,00.0,39.1,31.6,16.6,0000.5,0007.14,0003.27,0002.79
2021-09-28 13:12:00,,0822.3,5.00,0.00,29.9,28.6,00.0,39.1,31.6,16.7,0000.0,0007.07,0003.24,0002.76
2021-09-28 13:13:00,,0822.3,4.99,0.00,29.9,28.7,00.0,39.1,31.6,16.7,0000.0,0006.60,0003.18,0002.72
2021-09-28 13:14:00,,0822.3,5.01,0.00,29.9,28.7,00.0,39.1,31.7,16.7,0000.0,0006.43,0003.15,0002.68
2021-09-28 13:15:00,,0822.3,5.01,0.00,29.9,28.8,00.0,39.1,31.7,16.8,0001.0,0006.47,0003.13,0002.66
2021-09-28 13:16:00,,0822.3,4.99,0.00,30.0,28.8,00.0,39.1,31.7,16.8,0001.5,0006.17,0003.07,0002.64
2021-09-28 13:17:00,,0822.3,5.01,0.00,30.0,28.8,00.0,39.1,31.7,16.8,0003.2,0006.08,0003.03,0002.62
2021-09-28 13:18:00,,0822.2,5.00,0.00,30.0,28.9,00.0,39.1,31.7,16.9,0003.0,0005.71,0003.06,0002.61
2021-09-28 13:19:00,,0822.3,4.99,0.00,30.0,28.9,00.0,39.1,31.8,16.9,0003.5,0004.72,0003.07,0002.60
2021-09-28 13:20:00,,0822.3,5.01,0.00,30.0,29.0,00.0,39.1,31.8,16.9,0001.7,0004.57,0003.06,0002.58
2021-09-28 13:21:00,,0822.3,4.98,0.00,30.1,29.0,00.0,39.1,31.7,16.9,0000.0,0004.62,0003.06,0002.55
2021-09-28 13:22:00,,0822.3,5.01,0.00,30.1,29.0,00.0,39.1,31.8,16.9,0001.4,0004.68,0003.05,0002.54
2021-09-28 13:23:00,,0822.3,5.00,0.00,30.1,29.1,00.0,39.1,31.8,17.0,0002.0,0005.36,0003.08,0002.54
2021-09-28 13:24:00,,0822.3,5.00,0.00,30.1,29.1,00.0,39.1,31.9,17.0,0001.8,0006.15,0003.13,0002.56
2021-09-28 13:25:00,,0822.2,5.00,0.00,30.1,29.1,00.0,39.2,31.9,16.9,0001.2,0006.48,0003.15,0002.57
2021-09-28 13:26:00,,0822.2,5.00,0.00,30.1,29.1,00.0,39.2,31.9,16.9,0000.3,0006.56,0003.16,0002.56
2021-09-28 13:27:00,,0822.2,5.00,0.00,30.2,29.1,00.0,39.2,31.9,16.8,0000.0,0006.82,0003.18,0002.55
2021-09-28 13:28:00,,0822.2,5.00,0.00,30.2,29.2,00.0,39.2,31.9,16.8,-000.1,0007.05,0003.22,0002.56
2021-09-28 13:29:00,,0822.2,5.01,0.00,30.2,29.2,00.0,39.2,32.0,16.8,-000.3,0007.10,0003.22,0002.57
2021-09-28 13:30:00,,0822.2,4.99,0.00,30.2,29.2,00.0,39.2,32.0,16.8,-001.1,0007.47,0003.22,0002.58
2021-09-28 13:31:00,,0822.2,5.01,0.00,30.2,29.2,00.0,39.3,32.0,16.9,-000.7,0008.59,0003.21,0002.57
2021-09-28 13:32:00,,0822.2,5.00,0.00,30.2,29.2,00.0,39.3,32.0,16.9,-000.6,0008.54,0003.18,0002.57
2021-09-28 13:33:00,,0822.2,4.99,0.00,30.3,29.3,00.0,39.3,32.0,16.9,-000.1,0008.53,0003.16,0002.56
2021-09-28 13:34:00,,0822.2,5.02,0.00,30.3,29.3,00.0,39.3,32.0,16.9,0000.3,0008.07,0003.12,0002.54
2021-09-28 13:35:00,,0822.2,5.00,0.00,30.3,29.3,00.0,39.3,32.0,16.9,0000.3,0008.25,0003.12,0002.51
2021-09-28 13:36:00,,0822.2,4.99,0.00,30.3,29.3,00.0,39.3,32.0,16.9,0000.7,0008.07,0003.08,0002.50
2021-09-28 13:37:00,,0822.2,5.01,0.00,30.3,29.3,00.0,39.4,32.1,16.8,0001.1,0007.94,0003.03,0002.48
2021-09-28 13:38:00,,0822.2,5.00,0.00,30.3,29.2,00.0,39.4,32.0,16.8,0001.5,0007.82,0002.96,0002.47
2021-09-28 13:39:00,,0822.2,5.01,0.00,30.3,27.5,00.0,39.4,31.6,16.9,0001.8,0007.71,0002.89,0002.46
2021-09-28 13:40:00,,0822.2,4.99,0.00,30.0,25.5,00.0,39.3,31.1,17.2,0002.1,0007.67,0002.88,0002.46
2021-09-28 13:41:00,,0822.1,5.00,0.00,29.9,25.5,00.0,39.2,31.0,17.4,0002.5,0007.07,0002.88,0002.46
2021-09-28 13:42:00,,0822.1,4.99,0.00,29.8,26.0,00.0,39.2,31.0,17.7,0002.7,0005.28,0002.89,0002.47
2021-09-28 13:43:00,,0822.1,5.00,0.00,29.7,26.5,00.0,39.1,31.1,17.9,0000.0,0005.22,0002.91,0002.47
2021-09-28 13:44:00,,0822.1,5.00,0.00,29.7,27.0,00.0,39.1,31.2,17.8,0000.0,0005.42,0002.96,0002.48
2021-09-28 13:45:00,,0822.1,5.00,0.00,29.7,27.4,00.0,39.0,31.2,17.9,0000.0,0005.89,0003.03,0002.51
2021-09-28 13:46:00,,0822.1,5.01,0.00,29.7,27.7,00.0,39.0,31.3,17.8,0000.0,0005.10,0002.99,0002.52
2021-09-28 13:47:00,,0822.1,5.00,0.00,29.7,27.9,00.0,39.0,31.3,17.7,0000.0,0004.91,0002.96,0002.51
2021-09-28 13:48:00,,0822.1,5.00,0.00,29.7,28.1,00.0,38.9,31.4,17.7,0000.0,0004.90,0002.98,0002.52
2021-09-28 13:49:00,,0822.1,5.00,0.00,29.7,28.2,00.0,38.9,31.4,17.7,0000.0,0004.80,0002.98,0002.53
2021-09-28 13:50:00,,0822.1,5.01,0.00,29.7,28.4,00.0,38.9,31.4,17.7,0000.0,0004.83,0003.00,0002.54
2021-09-28 13:51:00,,0822.0,4.99,0.00,29.8,28.5,00.0,38.9,31.5,17.7,0000.0,0004.81,0002.98,0002.53
2021-09-28 13:52:00,,0822.1,5.01,0.00,29.8,28.6,00.0,38.9,31.5,17.8,0000.0,0005.36,0003.00,0002.52
2021-09-28 13:53:00,,0822.1,5.00,0.00,29.8,28.7,00.0,38.9,31.6,17.8,0000.0,0005.83,0003.04,0002.53
2021-09-28 13:54:00,,0822.1,5.00,0.00,29.8,28.7,00.0,38.9,31.6,17.8,0000.0,0005.89,0003.01,0002.52
2021-09-28 13:55:00,,0822.0,5.00,0.00,29.8,28.7,00.0,38.9,31.7,17.9,0000.0,0005.62,0002.92,0002.50
2021-09-28 13:56:00,,0822.0,5.00,0.00,29.9,28.8,00.0,39.0,31.7,18.0,0000.0,0005.32,0002.88,0002.50
2021-09-28 13:57:00,,0822.0,4.98,0.00,29.9,28.9,00.0,39.0,31.7,17.9,0000.0,0005.99,0002.92,0002.51
2021-09-28 13:58:00,,0822.0,5.00,0.00,29.9,28.9,00.0,39.0,31.7,17.9,0000.0,0007.16,0002.97,0002.54
2021-09-28 13:59:00,,0821.9,5.01,0.00,29.9,29.0,00.0,39.0,31.7,17.8,0000.0,0007.32,0003.01,0002.56
